Schneifelwetter: Wetterstation Hallschlag, 537 m . NN
Wetterdaten: Donnerstag, 30.11.2006
Datum Zeit Temp. A. Temp. 2 Feuchte A. Luftdruck Regen Wind Richtung Richtung Sonnenschein Helligkeit T Regen Taupunkt Windchill
30.11.2006 00:01 -1,4 C -2,3 C 93 % 1034 hPa 0,0 l/m 2,8 km/h (1 Bft) W-SW 250 0 min 0 lux 0,00 min -2,4 C -1,4 C
30.11.2006 00:16 -1,5 C -2,3 C 93 % 1034 hPa 0,0 l/m 0,0 km/h (0 Bft) W-SW 250 0 min 0 lux 0,00 min -2,5 C -1,5 C
30.11.2006 00:31 -1,4 C -2,2 C 93 % 1034 hPa 0,0 l/m 3,1 km/h (1 Bft) W-SW 250 0 min 0 lux 0,00 min -2,4 C -1,4 C
30.11.2006 00:46 -1,4 C -2,1 C 93 % 1034 hPa 0,0 l/m 0,7 km/h (0 Bft) W-SW 250 0 min 0 lux 0,00 min -2,4 C -1,4 C
30.11.2006 01:01 -1,4 C -2,0 C 93 % 1034 hPa 0,0 l/m 2,4 km/h (1 Bft) W-SW 250 0 min 0 lux 0,00 min -2,4 C -1,4 C
30.11.2006 01:16 -1,3 C -2,0 C 93 % 1034 hPa 0,0 l/m 1,7 km/h (1 Bft) W-SW 250 0 min 0 lux 0,00 min -2,3 C -1,3 C
30.11.2006 01:31 -1,3 C -1,8 C 93 % 1034 hPa 0,0 l/m 0,0 km/h (0 Bft) W-SW 250 0 min 0 lux 0,00 min -2,3 C -1,3 C
30.11.2006 01:46 -1,3 C -1,8 C 93 % 1034 hPa 0,0 l/m 0,0 km/h (0 Bft) W-SW 250 0 min 0 lux 0,00 min -2,3 C -1,3 C
30.11.2006 02:01 -1,3 C -1,8 C 94 % 1034 hPa 0,0 l/m 0,0 km/h (0 Bft) W-SW 250 0 min 0 lux 0,00 min -2,1 C -1,3 C
30.11.2006 02:16 -1,2 C -1,8 C 94 % 1034 hPa 0,0 l/m 0,0 km/h (0 Bft) W-SW 250 0 min 0 lux 0,00 min -2,0 C -1,2 C
30.11.2006 02:31 -1,3 C -1,9 C 93 % 1033 hPa 0,0 l/m 0,0 km/h (0 Bft) W-SW 250 0 min 0 lux 0,00 min -2,3 C -1,3 C
30.11.2006 02:46 -1,4 C -2,0 C 93 % 1033 hPa 0,0 l/m 0,0 km/h (0 Bft) W-SW 250 0 min 0 lux 0,00 min -2,4 C -1,4 C
30.11.2006 03:01 -1,6 C -2,4 C 93 % 1033 hPa 0,0 l/m 0,1 km/h (0 Bft) W-SW 250 0 min 0 lux 0,00 min -2,6 C -1,6 C
30.11.2006 03:16 -1,9 C -2,7 C 93 % 1033 hPa 0,0 l/m 5,5 km/h (1 Bft) W-SW 250 0 min 0 lux 0,00 min -2,9 C -1,9 C
30.11.2006 03:31 -2,0 C -2,8 C 94 % 1033 hPa 0,0 l/m 0,0 km/h (0 Bft) W-SW 250 0 min 0 lux 0,00 min -2,8 C -2,0 C
30.11.2006 03:46 -2,1 C -2,9 C 94 % 1033 hPa 0,0 l/m 0,0 km/h (0 Bft) W-SW 250 0 min 0 lux 0,00 min -2,9 C -2,1 C
30.11.2006 04:01 -2,2 C -3,1 C 93 % 1033 hPa 0,0 l/m 0,0 km/h (0 Bft) W-SW 250 0 min 0 lux 0,00 min -3,2 C -2,2 C
30.11.2006 04:16 -2,4 C -3,3 C 93 % 1033 hPa 0,0 l/m 2,6 km/h (1 Bft) W-SW 250 0 min 0 lux 0,00 min -3,4 C -2,4 C
30.11.2006 04:31 -2,6 C -3,8 C 93 % 1033 hPa 0,0 l/m 0,0 km/h (0 Bft) W-SW 250 0 min 0 lux 0,00 min -3,6 C -2,6 C
30.11.2006 04:46 -2,9 C -4,2 C 93 % 1033 hPa 0,0 l/m 0,0 km/h (0 Bft) W-SW 250 0 min 0 lux 0,00 min -3,9 C -2,9 C
30.11.2006 05:01 -3,0 C -4,4 C 93 % 1033 hPa 0,0 l/m 0,0 km/h (0 Bft) W-SW 250 0 min 0 lux 0,00 min -4,0 C -3,0 C
30.11.2006 05:16 -3,2 C -4,8 C 93 % 1033 hPa 0,0 l/m 0,0 km/h (0 Bft) W-SW 250 0 min 0 lux 0,00 min -4,2 C -3,2 C
30.11.2006 05:31 -3,4 C -5,1 C 93 % 1033 hPa 0,0 l/m 0,0 km/h (0 Bft) W-SW 250 0 min 0 lux 0,00 min -4,4 C -3,4 C
30.11.2006 05:46 -3,7 C -5,2 C 93 % 1033 hPa 0,0 l/m 0,0 km/h (0 Bft) W-SW 250 0 min 0 lux 0,00 min -4,7 C -3,7 C
30.11.2006 06:01 -3,9 C -5,4 C 93 % 1033 hPa 0,0 l/m 0,0 km/h (0 Bft) W-SW 250 0 min 0 lux 0,00 min -4,9 C -3,9 C
30.11.2006 06:16 -4,0 C -5,9 C 93 % 1032 hPa 0,0 l/m 0,0 km/h (0 Bft) W-SW 250 0 min 0 lux 0,00 min -5,0 C -4,0 C
30.11.2006 06:31 -4,2 C -6,1 C 93 % 1032 hPa 0,0 l/m 0,0 km/h (0 Bft) W-SW 250 0 min 0 lux 0,00 min -5,2 C -4,2 C
30.11.2006 06:46 -4,4 C -6,4 C 93 % 1032 hPa 0,0 l/m 0,0 km/h (0 Bft) W-SW 250 0 min 0 lux 0,00 min -5,4 C -4,4 C
30.11.2006 07:01 -4,6 C -6,5 C 93 % 1032 hPa 0,0 l/m 0,0 km/h (0 Bft) W-SW 250 0 min 0 lux 0,00 min -5,6 C -4,6 C
30.11.2006 07:16 -4,6 C -5,9 C 93 % 1032 hPa 0,0 l/m 0,0 km/h (0 Bft) W-SW 250 0 min 0 lux 0,00 min -5,6 C -4,6 C
30.11.2006 07:31 -4,2 C -5,1 C 93 % 1032 hPa 0,0 l/m 0,0 km/h (0 Bft) W-SW 250 0 min 0 lux 0,00 min -5,2 C -4,2 C
30.11.2006 07:46 -3,7 C -4,3 C 94 % 1032 hPa 0,0 l/m 0,0 km/h (0 Bft) W-SW 250 0 min 0 lux 0,00 min -4,5 C -3,7 C
30.11.2006 08:01 -3,4 C -3,9 C 94 % 1032 hPa 0,0 l/m 0,0 km/h (0 Bft) W-SW 250 0 min 0 lux 0,00 min -4,2 C -3,4 C
30.11.2006 08:16 -3,0 C -3,4 C 94 % 1032 hPa 0,0 l/m 0,0 km/h (0 Bft) W-SW 250 0 min 162 lux 0,00 min -3,8 C -3,0 C
30.11.2006 08:31 -2,6 C -3,1 C 94 % 1032 hPa 0,0 l/m 0,0 km/h (0 Bft) W-SW 250 0 min 442 lux 0,00 min -3,4 C -2,6 C
30.11.2006 08:46 -2,4 C -2,7 C 94 % 1032 hPa 0,0 l/m 0,0 km/h (0 Bft) W-SW 250 0 min 1,02 klux 0,00 min -3,2 C -2,4 C
30.11.2006 09:01 -2,0 C -2,3 C 95 % 1032 hPa 0,0 l/m 8,3 km/h (2 Bft) W-SW 250 0 min 1,66 klux 0,00 min -2,7 C -4,1 C
30.11.2006 09:16 -1,3 C -1,6 C 95 % 1032 hPa 0,0 l/m 4,6 km/h (1 Bft) W-SW 250 0 min 2,95 klux 0,00 min -2,0 C -1,3 C
30.11.2006 09:31 -0,4 C -0,9 C 95 % 1032 hPa 0,0 l/m 6,2 km/h (2 Bft) NW67.5 310 0 min 4,47 klux 0,00 min -1,1 C -0,4 C
30.11.2006 09:46 0,0 C -0,5 C 95 % 1032 hPa 0,0 l/m 6,0 km/h (2 Bft) N-NO 15 0 min 6,83 klux 0,00 min -0,7 C 0,0 C
30.11.2006 10:01 0,4 C -0,2 C 95 % 1032 hPa 0,0 l/m 8,9 km/h (2 Bft) NO22.5 35 0 min 9,4 klux 0,00 min -0,3 C -2,1 C
30.11.2006 10:16 0,6 C -0,1 C 95 % 1032 hPa 0,0 l/m 8,5 km/h (2 Bft) O-NO45 65 0 min 7,86 klux 0,00 min -0,1 C -1,5 C
30.11.2006 10:31 0,9 C 0,1 C 96 % 1032 hPa 0,3 l/m 10,2 km/h (2 Bft) O-NO22.5 70 0 min 8,82 klux 15,00 min 0,3 C -2,6 C
30.11.2006 10:46 1,2 C 0,9 C 95 % 1032 hPa 0,0 l/m 9,8 km/h (2 Bft) O-SO45 105 0 min 11,7 klux 0,00 min 0,5 C -2,0 C
30.11.2006 11:01 1,5 C 1,4 C 95 % 1032 hPa 0,0 l/m 8,9 km/h (2 Bft) O-SO45 110 0 min 12,6 klux 0,00 min 0,8 C -0,9 C
30.11.2006 11:16 1,9 C 2,0 C 95 % 1032 hPa 0,0 l/m 9,6 km/h (2 Bft) SO22.5 135 0 min 12,1 klux 0,00 min 1,2 C -1,0 C
30.11.2006 11:31 2,1 C 2,3 C 95 % 1032 hPa 0,0 l/m 7,3 km/h (2 Bft) SO22.5 135 0 min 9,2 klux 0,00 min 1,4 C 1,2 C
30.11.2006 11:46 2,5 C 2,7 C 95 % 1032 hPa 0,0 l/m 8,2 km/h (2 Bft) SO67.5 125 0 min 11,3 klux 0,00 min 1,8 C 0,8 C
30.11.2006 12:01 2,9 C 3,2 C 95 % 1032 hPa 0,0 l/m 12,7 km/h (3 Bft) SO22.5 135 0 min 9,9 klux 0,00 min 2,2 C -2,1 C
30.11.2006 12:16 3,3 C 3,7 C 95 % 1031 hPa 0,0 l/m 12,0 km/h (2 Bft) S-SO22.5 150 0 min 11,3 klux 0,00 min 2,6 C -1,2 C
30.11.2006 12:31 3,6 C 4,1 C 96 % 1031 hPa 0,0 l/m 13,8 km/h (3 Bft) S-SO45 150 0 min 11,8 klux 0,00 min 3,0 C -2,0 C
30.11.2006 12:46 4,0 C 4,5 C 96 % 1031 hPa 0,0 l/m 9,0 km/h (2 Bft) O-SO22.5 105 0 min 16,0 klux 0,00 min 3,4 C 1,7 C
30.11.2006 13:01 4,3 C 4,9 C 95 % 1031 hPa 0,0 l/m 13,1 km/h (3 Bft) O-SO45 115 0 min 21,6 klux 0,00 min 3,6 C -0,7 C
30.11.2006 13:16 4,7 C 5,6 C 95 % 1031 hPa 0,0 l/m 10,3 km/h (2 Bft) SO22.5 130 0 min 26,1 klux 0,00 min 4,0 C 1,5 C
30.11.2006 13:31 5,2 C 5,9 C 94 % 1031 hPa 0,0 l/m 12,7 km/h (3 Bft) SO22.5 135 0 min 19,7 klux 0,00 min 4,3 C 0,6 C
30.11.2006 13:46 5,6 C 7,7 C 94 % 1030 hPa 0,0 l/m 10,9 km/h (2 Bft) SO45 140 15 min 58,6 klux 0,00 min 4,7 C 2,1 C
30.11.2006 14:01 6,0 C 7,5 C 93 % 1030 hPa 0,0 l/m 13,3 km/h (3 Bft) S-SO22.5 150 15 min 59,2 klux 0,00 min 5,0 C 1,2 C
30.11.2006 14:17 6,0 C 7,3 C 92 % 1030 hPa 0,0 l/m 10,3 km/h (2 Bft) SO22.5 135 0 min 38,7 klux 0,00 min 4,8 C 3,0 C
30.11.2006 14:32 6,0 C 6,9 C 92 % 1030 hPa 0,0 l/m 13,7 km/h (3 Bft) S-SO22.5 150 0 min 20,2 klux 0,00 min 4,8 C 1,0 C
30.11.2006 14:47 5,9 C 6,9 C 91 % 1030 hPa 0,0 l/m 14,8 km/h (3 Bft) S-SO45 165 0 min 19,4 klux 0,00 min 4,5 C 0,3 C
30.11.2006 15:02 5,7 C 6,5 C 91 % 1030 hPa 0,0 l/m 10,9 km/h (2 Bft) S-SO22.5 160 0 min 10,5 klux 0,00 min 4,3 C 2,2 C
30.11.2006 15:17 5,4 C 5,9 C 91 % 1030 hPa 0,0 l/m 12,2 km/h (2 Bft) S-SO22.5 150 0 min 6,08 klux 0,00 min 4,1 C 1,1 C
30.11.2006 15:32 5,2 C 5,6 C 92 % 1030 hPa 0,0 l/m 8,8 km/h (2 Bft) S-SO22.5 160 0 min 6,29 klux 0,00 min 4,0 C 3,2 C
30.11.2006 15:47 4,9 C 5,3 C 92 % 1030 hPa 0,0 l/m 13,0 km/h (3 Bft) S-SO22.5 150 0 min 5,04 klux 0,00 min 3,7 C 0,0 C
30.11.2006 16:02 4,8 C 5,0 C 92 % 1029 hPa 0,0 l/m 16,1 km/h (3 Bft) SO45 140 0 min 4,05 klux 0,00 min 3,6 C -1,7 C
30.11.2006 16:17 4,5 C 4,7 C 92 % 1029 hPa 0,0 l/m 19,0 km/h (3 Bft) S-SO22.5 150 0 min 2,07 klux 0,00 min 3,3 C -3,4 C
30.11.2006 16:32 4,3 C 4,4 C 92 % 1029 hPa 0,0 l/m 15,6 km/h (3 Bft) S-SO45 150 0 min 1,50 klux 0,00 min 3,1 C -2,1 C
30.11.2006 16:47 4,3 C 4,2 C 93 % 1029 hPa 0,0 l/m 9,8 km/h (2 Bft) S-SO22.5 160 0 min 606 lux 0,00 min 3,3 C 1,4 C
30.11.2006 17:02 4,1 C 4,1 C 93 % 1028 hPa 0,0 l/m 6,6 km/h (2 Bft) O-SO45 115 0 min 243 lux 0,00 min 3,1 C 3,9 C
30.11.2006 17:17 3,9 C 3,9 C 93 % 1028 hPa 0,0 l/m 8,9 km/h (2 Bft) SO45 135 0 min 82 lux 0,00 min 2,9 C 1,7 C
30.11.2006 17:32 3,9 C 3,8 C 93 % 1028 hPa 0,0 l/m 9,7 km/h (2 Bft) SO22.5 140 0 min 22 lux 0,00 min 2,9 C 1,1 C
30.11.2006 17:47 3,7 C 3,5 C 93 % 1027 hPa 0,0 l/m 12,6 km/h (3 Bft) S-SO22.5 160 0 min 7 lux 0,00 min 2,7 C -1,1 C
30.11.2006 18:02 3,5 C 3,0 C 93 % 1027 hPa 0,0 l/m 12,8 km/h (3 Bft) SO45 130 0 min 4 lux 0,00 min 2,5 C -1,5 C
30.11.2006 18:17 3,4 C 2,6 C 93 % 1027 hPa 0,0 l/m 9,3 km/h (2 Bft) S-SO22.5 150 0 min 3 lux 0,00 min 2,4 C 0,8 C
30.11.2006 18:32 3,3 C 2,5 C 93 % 1027 hPa 0,0 l/m 10,0 km/h (2 Bft) W-SW45 250 0 min 3 lux 0,00 min 2,3 C 0,2 C
30.11.2006 18:47 3,1 C 2,5 C 94 % 1027 hPa 0,0 l/m 11,7 km/h (2 Bft) S-SW22.5 200 0 min 1 lux 0,00 min 2,2 C -1,2 C
30.11.2006 19:02 3,4 C 3,0 C 94 % 1027 hPa 0,0 l/m 14,4 km/h (3 Bft) S22.5 180 0 min 0 lux 0,00 min 2,5 C -2,5 C
30.11.2006 19:17 3,6 C 3,3 C 94 % 1027 hPa 0,0 l/m 13,0 km/h (3 Bft) S22.5 175 0 min 0 lux 0,00 min 2,7 C -1,5 C
30.11.2006 19:32 3,8 C 3,5 C 94 % 1027 hPa 0,0 l/m 15,9 km/h (3 Bft) S45 180 0 min 0 lux 0,00 min 2,9 C -2,8 C
30.11.2006 19:47 3,9 C 3,6 C 95 % 1027 hPa 0,0 l/m 22,1 km/h (4 Bft) S-SO22.5 165 0 min 0 lux 0,00 min 3,2 C -5,4 C
30.11.2006 20:02 3,9 C 3,7 C 95 % 1027 hPa 0,0 l/m 21,8 km/h (4 Bft) S-SO22.5 155 0 min 0 lux 0,00 min 3,2 C -5,3 C
30.11.2006 20:17 3,9 C 3,7 C 94 % 1027 hPa 0,0 l/m 24,3 km/h (4 Bft) S22.5 190 0 min 0 lux 0,00 min 3,0 C -6,2 C
30.11.2006 20:32 3,8 C 3,7 C 95 % 1027 hPa 0,0 l/m 22,4 km/h (4 Bft) S22.5 185 0 min 0 lux 0,00 min 3,1 C -5,7 C
30.11.2006 20:47 3,9 C 3,7 C 95 % 1028 hPa 0,0 l/m 24,0 km/h (4 Bft) S22.5 170 0 min 0 lux 0,00 min 3,2 C -6,1 C
30.11.2006 21:02 3,9 C 3,8 C 95 % 1028 hPa 0,0 l/m 22,0 km/h (4 Bft) S45 170 0 min 0 lux 0,00 min 3,2 C -5,4 C
30.11.2006 21:17 3,9 C 3,9 C 95 % 1028 hPa 0,0 l/m 19,1 km/h (3 Bft) S45 190 0 min 0 lux 0,00 min 3,2 C -4,2 C
30.11.2006 21:32 4,1 C 4,1 C 95 % 1027 hPa 0,0 l/m 17,4 km/h (3 Bft) S22.5 180 0 min 0 lux 0,00 min 3,4 C -3,2 C
30.11.2006 21:47 4,3 C 4,2 C 95 % 1027 hPa 0,0 l/m 12,5 km/h (3 Bft) S22.5 170 0 min 0 lux 0,00 min 3,6 C -0,4 C
30.11.2006 22:02 4,5 C 4,3 C 95 % 1027 hPa 0,0 l/m 15,5 km/h (3 Bft) S-SO22.5 155 0 min 0 lux 0,00 min 3,8 C -1,8 C
30.11.2006 22:17 4,7 C 4,5 C 95 % 1027 hPa 0,0 l/m 19,6 km/h (3 Bft) S22.5 175 0 min 0 lux 0,00 min 4,0 C -3,4 C
30.11.2006 22:32 4,8 C 4,6 C 95 % 1026 hPa 0,0 l/m 19,9 km/h (4 Bft) S45 170 0 min 0 lux 0,00 min 4,1 C -3,4 C
30.11.2006 22:47 4,9 C 4,6 C 94 % 1026 hPa 0,0 l/m 16,8 km/h (3 Bft) S-SO22.5 160 0 min 0 lux 0,00 min 4,0 C -1,9 C
30.11.2006 23:02 5,1 C 4,8 C 94 % 1026 hPa 0,0 l/m 22,1 km/h (4 Bft) S22.5 170 0 min 0 lux 0,00 min 4,2 C -3,8 C
30.11.2006 23:17 5,1 C 4,7 C 94 % 1026 hPa 0,0 l/m 20,1 km/h (4 Bft) S22.5 180 0 min 0 lux 0,00 min 4,2 C -3,1 C
30.11.2006 23:32 5,1 C 4,7 C 94 % 1026 hPa 0,0 l/m 18,3 km/h (3 Bft) S45 180 0 min 0 lux 0,00 min 4,2 C -2,3 C
30.11.2006 23:47 5,2 C 4,8 C 94 % 1026 hPa 0,0 l/m 21,3 km/h (4 Bft) S22.5 180 0 min 0 lux 0,00 min 4,3 C -3,4 C
_ Min-Zeit 07:01 07:01 14:47 22:32 - 00:16 - - - - - 07:01 20:17
Minimum _ -4,6 C -6,5 C 91 % 1026 hPa - 0,0 km/h (0 Bft) - - - - - -5,6 C -6,2 C
_ Max-Zeit 14:01 13:46 10:31 00:01 10:31 20:17 - - 13:46 14:01 10:31 14:01 17:02
Maximum _ 6,0 C 7,7 C 96 % 1034 hPa 0,3 l/m 24,3 km/h
S (4 Bft)
- - 15 min 59,2 klux 15,00 min 5,0 C 3,9 C
Durchschnitt _ 1,3 C 1,0 C 94 % 1031 hPa #0,3 l/m 8,7 km/h (2 Bft) S-SO - #30 min. 4,68 klux #15 min. 0,4 C -1,7 C